SB KEPS @ AMSAT $ORB11328.N 2Line Orbital Elements 11328.AMSAT
HR AMSAT ORBITAL ELEMENTS FOR AMATEUR SATELLITES IN NASA FORMAT FROM WA5QGD FORT WORTH,TX November 24, 2011 Send Subscribe/unsubscribe to KEPS at http://www.amsat.org/mailman/listinfo/keps BID: ORB11328.N
DECODE 2-LINE ELSETS WITH THE FOLLOWING KEY: 1 AAAAAU 00 0 0 BBBBB.BBBBBBBB .CCCCCCCC 00000-0 00000-0 0 DDDZ 2 AAAAA EEE.EEEE FFF.FFFF GGGGGGG HHH.HHHH III.IIII JJ.JJJJJJJJKKKKKZ KEY: A-CATALOGNUM B-EPOCHTIME C-DECAY D-ELSETNUM E-INCLINATION F-RAAN G-ECCENTRICITY H-ARGPERIGEE I-MNANOM J-MNMOTION K-ORBITNUM Z-CHECKSUM
TO ALL RADIO AMATEURS BT
AO-07 1 07530U 74089B 11327.84772138 -.00000027 00000-0 10000-3 0 02398 2 07530 101.3968 328.1074 0011929 327.2014 032.8313 12.53585662694193 FO-29 1 24278U 96046B 11328.89889464 .00000054 00000-0 91814-4 0 7173 2 24278 098.5700 091.5678 0350390 200.7610 157.8992 13.52971242754199 SO-33 1 25509U 98061B 11327.64616612 .00001871 00000-0 35893-3 0 1069 2 25509 031.4327 062.3641 0353174 196.3034 162.5974 14.28552969683095 RS-22 1 27939U 03042A 11328.60320086 .00001241 00000-0 24623-3 0 8402 2 27939 097.8247 174.7795 0013055 193.0474 167.0383 14.63777631435804 VO-52 1 28650U 05017B 11328.69854330 .00002465 00000-0 31190-3 0 9575 2 28650 097.6242 004.5010 0026886 358.2563 001.8531 14.82440328354528 SO-67 1 35870U 09049F 11328.90342593 .00007610 00000-0 33632-3 0 4365 2 35870 097.2619 006.8042 0002480 136.5391 219.3058 15.21980912121360 HO-68 1 36122U 09072B 11328.23507393 -.00000044 00000-0 00000 0 0 9526 2 36122 100.3947 026.4737 0007360 217.6711 142.3885 13.16290446 93290 UO-11 1 14781U 84021B 11327.96086287 .00001257 00000-0 17235-3 0 07226 2 14781 097.9847 023.9920 0009160 348.6158 011.4842 14.80179656489427 AO-16 1 20439U 90005D 11327.89694375 .00000393 00000-0 16231-3 0 3330 2 20439 098.4043 272.3312 0011791 052.2843 307.9404 14.31980846140478 LO-19 1 20442U 90005G 11327.88167706 .00000420 00000-0 17117-3 0 2543 2 20442 098.3685 276.0677 0012613 046.1183 314.1035 14.32203272140653 AO-27 1 22825U 93061C 11327.96279704 .00000225 00000-0 10531-3 0 09684 2 22825 098.5505 269.2567 0008679 160.6486 199.5024 14.29398427947011 IO-26 1 22826U 93061D 11327.86277646 .00000348 00000-0 15276-3 0 7132 2 22826 098.5443 269.5853 0009189 155.1963 204.9660 14.29666268947120 GO-32 1 25397U 98043D 11328.62561019 .00000235 00000-0 12180-3 0 6379 2 25397 098.3409 312.7263 0001600 132.1142 228.0160 14.23239835694789 NO-44 1 26931U 01043C 11327.89162048 .00000382 00000-0 18100-3 0 09054 2 26931 067.0532 291.9990 0004881 267.6412 092.4124 14.29723129529754 SO-50 1 27607U 02058C 11328.82555566 .00001571 00000-0 25776-3 0 6221 2 27607 064.5585 199.4601 0083303 288.3376 070.8657 14.72034307479735 CO-55 1 27844U 03031E 11328.59429366 .00000541 00000-0 26999-3 0 2509 2 27844 098.7057 334.9729 0010458 094.7670 265.4692 14.20904650435693 CO-57 1 27848U 03031J 11327.50660262 .00000454 00000-0 23092-3 0 01968 2 27848 098.7144 333.1488 0010582 101.6761 258.5595 14.20671092435487 AO-51 1 28375U 04025K 11328.46418059 .00000713 00000-0 22667-3 0 1278 2 28375 098.1178 298.6607 0083569 305.0613 054.2784 14.40848059389146 CP3 1 31129U 07012N 11327.96134047 .00001665 00000-0 38912-3 0 00270 2 31129 097.8922 342.8785 0102570 044.9079 316.0381 14.52717435244034 CO-65 1 32785U 08021C 11328.75457583 .00002972 00000-0 37663-3 0 1580 2 32785 097.8312 029.4277 0015229 017.0698 343.1009 14.82423035193328 PRISM 1 33493U 09002B 11328.85252407 .00006349 00000-0 79288-3 0 1778 2 33493 098.1436 100.0756 0018891 240.6425 119.2877 14.82601935153311 SOHLA-1 1 33496U 09002E 11328.86317672 .00000882 00000-0 15617-3 0 5785 2 33496 098.0930 077.1914 0006471 341.6432 018.4536 14.69771526152087 TISAT-1 1 36799U 10035E 11328.69323330 .00003991 00000-0 51909-3 0 4474 2 36799 098.0857 038.4260 0016162 117.0097 243.2765 14.81147772 74065 STUDSAT 1 36801U 10035G 11328.86469272 .00010632 00000-0 13384-2 0 2880 2 36801 098.0911 038.6285 0013963 105.2511 255.0244 14.82146808 74080 OOREOS 1 37224U 10062C 11283.12196780 .00000955 00000-0 14226-3 0 03021 2 37224 071.9656 145.3580 0018647 057.9354 302.3616 14.77183931047847 FO-69 1 37227U 0 11327.52777932 .00001236 00000-0 18354-3 0 00343 2 37227 071.9707 047.8933 0017693 339.6360 020.4071 14.76794195005589 NANOSALD 1 37361U 0 11242.25215765 .00180112 00000-0 75811-2 0 03512 2 37361 071.9735 221.4469 0025730 245.3422 114.7284 15.22200108033319 FO-70 1 37380U 0 11327.43140806 .00001227 00000-0 18324-3 0 00366 2 37380 071.9738 048.4073 0018260 337.2671 022.7645 14.76553400005466 NOAA-10 1 16969U 86073A 11327.95294115 .00000197 00000-0 97837-4 0 07167 2 16969 098.6056 355.4503 0012878 115.8313 244.4196 14.27502641310444 NOAA-11 1 19531U 88089A 11327.66226058 .00000052 00000-0 49135-4 0 07105 2 19531 098.7472 052.0598 0011924 092.9676 267.2878 14.14939290195303 NOAA-12 1 21263U 91032A 11327.96520194 .00000127 00000-0 72447-4 0 02237 2 21263 098.7447 345.4547 0014691 080.5690 279.7149 14.25457062067172 MET-3/5 1 21655U 91056A 11327.66765929 .00000051 00000-0 10000-3 0 02683 2 21655 082.5555 298.0885 0014574 115.3833 244.8833 13.17033096974719 MET-2/21 1 22782U 93055A 11328.71823315 .00000065 00000-0 45583-4 0 2643 2 22782 082.5485 195.5187 0022900 012.5111 347.6608 13.83669198920756 OKEAN-4 1 23317U 94066A 11327.92079638 .00001926 00000-0 23131-3 0 07651 2 23317 082.5414 223.9578 0020726 316.8949 043.0639 14.83385585924229 NOAA-14 1 23455U 94089A 11327.90327904 .00000232 00000-0 14590-3 0 07040 2 23455 098.8443 048.8768 0009162 181.9288 178.1847 14.13855241871649 NOAA-15 1 25338U 98030A 11327.91037696 .00000478 00000-0 22289-3 0 00329 2 25338 098.6711 312.0023 0010702 353.4047 006.6985 14.24991859703479 RESURS 1 25394U 98043A 11327.93307306 .00000145 00000-0 80405-4 0 09645 2 25394 098.3063 322.2155 0002074 103.1546 256.9865 14.24257283695040 FENGYUN1 1 25730U 99025A 11328.89295736 .00001651 00000-0 97454-3 0 4772 2 25730 098.8314 286.6945 0022101 228.1259 131.8025 14.09085069645699 OKEAN-0 1 25860U 99039A 11327.97680804 .00001291 00000-0 20400-3 0 04758 2 25860 097.9062 290.2331 0001064 109.3692 250.7631 14.73969047664197 NOAA-16 1 26536U 00055A 11327.86571478 .00000461 00000-0 27387-3 0 05135 2 26536 099.1248 001.5237 0009918 306.0875 053.9358 14.12674662575909 NOAA-17 1 27453U 02032A 11327.71283847 .00000347 00000-0 16758-3 0 04968 2 27453 098.3624 359.9519 0012477 045.4205 314.7997 14.24353740489360 NOAA-18 1 28654U 05018A 11327.73360525 .00000197 00000-0 13345-3 0 09743 2 28654 099.0179 279.4331 0014679 018.5828 341.5883 14.11557082335434 NOAA-19 1 33591U 09005A 11327.69527595 .00000152 00000-0 10857-3 0 01632 2 33591 098.8429 265.2785 0013311 244.7929 115.1866 14.11247222143882 HUBBLE 1 20580U 90037B 11326.31132196 .00003790 00000-0 27084-3 0 8928 2 20580 028.4700 063.2810 0003036 006.5468 353.5081 15.01859302983446 ISS 1 25544U 98067A 11328.84914510 .00062142 00000-0 77682-3 0 4978 2 25544 051.6422 072.2593 0030676 087.7073 006.3431 15.58656604745991 CO-58 1 28895U 05043F 11327.66127578 .00001346 00000-0 28710-3 0 00323 2 28895 097.9429 197.6776 0018847 080.0603 280.2722 14.60328836323510 FALCON 1 30776U 07006E 11327.78574134 .00008100 00000-0 54934-3 0 2225 2 30776 035.4319 095.9887 0002401 012.6025 347.4752 15.05815440259101 MAST 1 31126U 07012K 11327.98691437 .00001105 00000-0 25753-3 0 03215 2 31126 097.8854 346.0978 0095004 033.5700 327.1467 14.53914240244305 CAPE1 1 31130U 07012P 11327.50031586 .00001454 00000-0 34177-3 0 03296 2 31130 097.8902 342.1940 0102805 046.7728 314.2009 14.52606554243767 COMPASS 1 32787U 08021E 11327.68583620 .00004536 00000-0 56220-3 0 01549 2 32787 097.8321 028.4081 0015925 019.9189 340.2667 14.83080973193195 AAUSAT2 1 32788U 08021F 11327.83016736 .00004669 00000-0 57524-3 0 1439 2 32788 097.8323 028.8292 0015373 020.7422 339.4394 14.83321501193230 DO-64 1 32789U 08021G 11327.70795450 .00007080 00000-0 85063-3 0 01599 2 32789 097.8410 030.0577 0015375 017.3341 342.8407 14.84191090193235 CO-66 1 32791U 08021J 11327.80705193 .00003748 00000-0 47033-3 0 01488 2 32791 097.8337 028.4067 0016375 018.7842 341.3989 14.82660434193154 RS-30 1 32953U 08025A 11328.23969382 .00000010 00000-0 00000 0 0 2841 2 32953 082.5026 063.2078 0019326 040.3957 319.8566 12.43017468158976 TACSAT-3 1 35001U 09028A 11327.96180544 .00084064 00000-0 98334-3 0 07832 2 35001 040.4557 277.2324 0011863 299.8741 060.0792 15.60431319141926 PHARMSAT 1 35002U 09028B 11327.98644236 .00058991 00000-0 78300-3 0 07176 2 35002 040.4727 276.8049 0015224 322.6707 037.3099 15.57167724141937 HAWKSAT1 1 35003U 09028C 11276.79285837 .02274821 58283-2 19360-2 0 8114 2 35003 040.4398 174.3672 0011414 274.3918 085.3844 16.13812532134570 CP6 1 35004U 09028D 11247.64656856 .16152067 73217-5 10011-2 0 7842 2 35004 040.4403 342.9642 0002956 038.0069 322.2231 16.41039951130139 METEOR-M 1 35865U 09049A 11328.73821359 .00000031 00000-0 33980-4 0 9296 2 35865 098.6861 021.6108 0001969 303.9637 056.1348 14.21847972113402 RS-38 1 35869U 09049E 11328.71795382 .00000106 00000-0 67857-4 0 9084 2 35869 098.6826 021.6140 0003991 293.4720 066.6037 14.22037435113414 ARISSAT1 1 37772U 98067CK 11328.76565514 .00257287 00000-0 12512-2 0 3482 2 37772 051.6337 067.0376 0004313 050.3415 087.3395 15.81126381 17639 SRMSAT 1 37839U 11058B 11327.82303341 .00000619 00000-0 19019-3 0 00375 2 37839 019.9623 168.3689 0019255 111.3391 248.9070 14.11994545006047 JUGNU 1 37841U 11058D 11327.80975646 .00000264 00000-0 00000 0 0 337 2 37841 019.9728 169.2965 0011139 086.3993 273.7725 14.10089676 6025 /EX